National Weather Service Raw Text Product

Displaying AFOS PIL: RWRIA Received: 2018-02-14 01:00 UTC


655 
ASUS43 KDMX 140106
RWRIA 

WEATHER ROUNDUP FOR IOWA
NATIONAL WEATHER SERVICE DES MOINES IA
700 PM CST TUE FEB 13 2018

NOTE: "FAIR" INDICATES FEW OR NO CLOUDS BELOW 12,000 FEET WITH NO
SIGNIFICANT WEATHER AND/OR OBSTRUCTIONS TO VISIBILITY.

* - THESE STATIONS ARE NOT NWS STATIONS...THUS NOT UNDER NWS
QUALITY CONTROL.  THEY ALSO DO NOT REPORT WEATHER SUCH 
AS PRECIPITATION OR FOG.  

IAZ001>003-012>014-020>022-031>034-043>046-140200-
   NORTHWEST IOWA
  
CITY           SKY/WX    TMP DP  RH WIND       PRES   REMARKS
CARROLL *      CLOUDY    28  23  80 S9        30.16F WCI  20          
CHEROKEE *     CLEAR     29  25  84 S9        30.11F WCI  20          
DENISON *      CLEAR     32  27  80 S9        30.17S WCI  24          
LE MARS *      CLEAR     27  23  86 S6        30.10F WCI  20          
ORANGE CITY *  CLEAR     27  25  93 SW8       30.09S WCI  18          
SHELDON *      CLEAR     25  21  86 W7        30.08S WCI  17          
SIOUX CITY     CLEAR     29  24  82 S10       30.12F WCI  20          
SPENCER        CLOUDY    23  18  81 SW8       30.10F WCI  14          
STORM LAKE *   CLOUDY    27  23  86 SW16      30.10F WCI  14          
$$
 
IAZ055>058-069>071-079>083-090>094-140200-
   SOUTHWEST IOWA
  
CITY           SKY/WX    TMP DP  RH WIND       PRES   REMARKS
ATLANTIC *     PTCLDY    28  25  86 CALM      30.18F                  
AUDUBON *      CLEAR     30  25  80 CALM      30.18S                  
CLARINDA *     CLEAR     34  30  86 CALM      30.22S                  
COUNCIL BLFS * CLEAR     36  32  87 S6        30.17F WCI  31          
CRESTON *      CLEAR     36  27  69 S8        30.21S WCI  29          
HARLAN  *      CLEAR     28  27  93 S5        30.20S WCI  23          
LAMONI         CLEAR     39  24  55 S7        30.21S WCI  34          
RED OAK *      CLEAR     32  27  80 CALM      30.19F                  
SHENANDOAH *   CLEAR     34  30  86 CALM      30.20S                  
$$
 
IAZ047>049-059>061-072>074-084-140200-
   CENTRAL IOWA
  
CITY           SKY/WX    TMP DP  RH WIND       PRES   REMARKS
AMES           CLOUDY    23  18  81 S3        30.19S                  
ANKENY *       CLEAR     30  23  74 S6        30.21R WCI  24          
BOONE *        CLOUDY    32  25  74 SW5       30.18R WCI  27          
CHARITON *     CLEAR     36  25  64 S8        30.22R WCI  29          
DES MOINES     CLEAR     34  23  64 S8        30.20F WCI  27          
GRINNELL*      CLOUDY    28  22  79 SE10      30.21F WCI  18          
KNOXVILLE *    CLOUDY    34  23  64 S7        30.20F WCI  28          
MARSHALLTOWN   CLOUDY    26  20  77 SE7       30.20R WCI  18          
NEWTON *       CLOUDY    25  21  86 S8        30.19F WCI  16          
PELLA *        CLOUDY    32  23  68 SE6       30.23F WCI  26          
PERRY *        FAIR      26  22  85 S8        30.19F WCI  18          
$$
 
IAZ004>006-015-016-023>025-035-036-140200-
   NORTH CENTRAL IOWA
  
CITY           SKY/WX    TMP DP  RH WIND       PRES   REMARKS
ALGONA *       CLOUDY    23 N/A N/A S14       30.11F WCI  11          
CLARION *      CLOUDY    21  21 100 S12       30.16S WCI   9          
ESTHERVILLE    CLEAR     22  18  85 SW8       30.10R WCI  12          
FORT DODGE *   CLOUDY    28  23  81 S12       30.16F WCI  18          
MASON CITY     CLOUDY    18  14  84 S10       30.16F WCI   6          
FOREST CITY *  FAIR      21  19  93 S9        30.13S WCI  11          
WEBSTER CITY * CLOUDY    23  19  86 S10       30.15F WCI  12          
IOWA FALLS *   FAIR      21  18  88 SE3       30.20S                  
$$

IAZ007>011-017>019-026>030-037>042-050>054-066-140200-
   NORTHEAST IOWA
  
CITY           SKY/WX    TMP DP  RH WIND       PRES   REMARKS
CEDAR RAPIDS   FAIR      27  19  72 S7        30.22F WCI  19          
CHARLES CITY * FAIR      23  19  86 S12       30.18F WCI  12          
CLINTON *      FAIR      26  20  77 S8        30.28S WCI  18          
DECORAH *      FAIR      23  19  86 S9        30.17S WCI  13          
DUBUQUE        FAIR      20  14  77 S12       30.22F WCI   8          
MONTICELLO *   FAIR      25  18  74 S8        30.24S WCI  16          
OELWEIN *      FAIR      23  23 100 S12       30.20F WCI  12          
WATERLOO       FAIR      24  19  81 S8        30.21S WCI  15          
$$
 
IAZ064-065-067-068-078-140200-
   EAST CENTRAL IOWA
  
CITY           SKY/WX    TMP DP  RH WIND       PRES   REMARKS
DAVENPORT      FAIR      29  20  69 S8        30.29S WCI  21          
IOWA CITY      FAIR      26  18  71 SE6       30.27F WCI  19          
MT. PLEASANT * CLOUDY    30  23  74 SE6       30.28S WCI  24          
MUSCATINE *    FAIR      27  19  74 CALM      30.29F                  
QUAD CITIES    FAIR      28  20  71 CALM      30.27F                  
$$
 
IAZ062-063-075>077-085>089-095>099-140200-
   SOUTHEAST IOWA
  
CITY           SKY/WX    TMP DP  RH WIND       PRES   REMARKS
BURLINGTON     CLEAR     32  24  72 S6        30.28S WCI  26          
FAIRFIELD *    CLOUDY    32  23  69 SE10      30.25F WCI  24          
FORT MADISON * CLEAR     34  27  75 SE3       30.29F                  
KEOKUK *       PTCLDY    36  27  69 SE7       30.28S WCI  30          
OSKALOOSA *    FAIR      27  21  78 SE12      30.24S WCI  17          
OTTUMWA        CLOUDY    32  23  69 SE5       30.24F WCI  27          
WASHINGTON *   CLOUDY    28  25  86 S8        30.27F WCI  20          
$$

ABBREVIATIONS USED IN REMARKS
   TC - TEMPERATURES IN CELSIUS
  WCI - WIND CHILL INDEX
   HX - HEAT INDEX
  VSB - VISIBILITY  
$$

  

603 
ASUS43 KDMX 140101
RWRIA 

WEATHER ROUNDUP FOR IOWA
NATIONAL WEATHER SERVICE DES MOINES IA
700 PM CST TUE FEB 13 2018

NOTE: "FAIR" INDICATES FEW OR NO CLOUDS BELOW 12,000 FEET WITH NO
SIGNIFICANT WEATHER AND/OR OBSTRUCTIONS TO VISIBILITY.

* - THESE STATIONS ARE NOT NWS STATIONS...THUS NOT UNDER NWS
QUALITY CONTROL.  THEY ALSO DO NOT REPORT WEATHER SUCH 
AS PRECIPITATION OR FOG.  

IAZ001>003-012>014-020>022-031>034-043>046-140200-
   NORTHWEST IOWA
  
CITY           SKY/WX    TMP DP  RH WIND       PRES   REMARKS
CARROLL *      CLOUDY    28  23  80 S9        30.16F WCI  20          
CHEROKEE *     CLEAR     29  25  84 S9        30.11F WCI  20          
DENISON *      CLEAR     32  27  80 S9        30.17S WCI  24          
LE MARS *      CLEAR     27  23  86 S6        30.10F WCI  20          
ORANGE CITY *  CLEAR     27  25  93 SW8       30.09S WCI  18          
SHELDON *      CLEAR     25  21  86 W7        30.08S WCI  17          
SIOUX CITY     CLEAR     29  24  82 S10       30.12F WCI  20          
SPENCER        CLOUDY    23  18  81 SW8       30.10F WCI  14          
STORM LAKE *   CLOUDY    27  23  86 SW16      30.10F WCI  14          
$$
 
IAZ055>058-069>071-079>083-090>094-140200-
   SOUTHWEST IOWA
  
CITY           SKY/WX    TMP DP  RH WIND       PRES   REMARKS
ATLANTIC *     PTCLDY    28  25  86 CALM      30.18F                  
AUDUBON *      CLEAR     30  25  80 CALM      30.18S                  
CLARINDA *     CLEAR     34  30  86 CALM      30.22S                  
COUNCIL BLFS * CLEAR     36  32  87 S6        30.17F WCI  31          
CRESTON *      CLEAR     36  27  69 S8        30.21S WCI  29          
HARLAN  *      CLEAR     28  27  93 S5        30.20S WCI  23          
LAMONI         CLEAR     39  24  55 S7        30.21S WCI  34          
RED OAK *      CLEAR     32  27  80 CALM      30.19F                  
SHENANDOAH *   CLEAR     34  30  86 CALM      30.20S                  
$$
 
IAZ047>049-059>061-072>074-084-140200-
   CENTRAL IOWA
  
CITY           SKY/WX    TMP DP  RH WIND       PRES   REMARKS
AMES           CLOUDY    23  18  81 S3        30.19S                  
ANKENY *       CLEAR     30  23  74 S6        30.21R WCI  24          
BOONE *        CLOUDY    32  25  74 SW5       30.18R WCI  27          
CHARITON *     CLEAR     36  25  64 S8        30.22R WCI  29          
DES MOINES     CLEAR     34  23  64 S8        30.20F WCI  27          
GRINNELL*      CLOUDY    28  22  79 SE10      30.21F WCI  18          
KNOXVILLE *    CLOUDY    34  23  64 S7        30.20F WCI  28          
MARSHALLTOWN   CLOUDY    26  20  77 SE7       30.20R WCI  18          
NEWTON *       CLOUDY    25  21  86 S8        30.19F WCI  16          
PELLA *        CLOUDY    32  23  68 SE6       30.23F WCI  26          
$$
 
IAZ004>006-015-016-023>025-035-036-140200-
   NORTH CENTRAL IOWA
  
CITY           SKY/WX    TMP DP  RH WIND       PRES   REMARKS
CLARION *      CLOUDY    21  21 100 S12       30.16S WCI   9          
ESTHERVILLE    CLEAR     22  18  85 SW8       30.10R WCI  12          
FORT DODGE *   CLOUDY    28  23  81 S12       30.16F WCI  18          
MASON CITY     CLOUDY    18  14  84 S10       30.16F WCI   6          
FOREST CITY *  FAIR      21  19  93 S9        30.13S WCI  11          
WEBSTER CITY * CLOUDY    23  19  86 S10       30.15F WCI  12          
IOWA FALLS *   FAIR      21  18  88 SE3       30.20S                  
$$

IAZ007>011-017>019-026>030-037>042-050>054-066-140200-
   NORTHEAST IOWA
  
CITY           SKY/WX    TMP DP  RH WIND       PRES   REMARKS
CEDAR RAPIDS   FAIR      27  19  72 S7        30.22F WCI  19          
CHARLES CITY * FAIR      23  19  86 S12       30.18F WCI  12          
CLINTON *      FAIR      26  20  77 S8        30.28S WCI  18          
DECORAH *      FAIR      23  19  86 S9        30.17S WCI  13          
DUBUQUE        FAIR      20  14  77 S12       30.22F WCI   8          
MONTICELLO *   FAIR      25  18  74 S8        30.24S WCI  16          
OELWEIN *      FAIR      23  23 100 S12       30.20F WCI  12          
WATERLOO       FAIR      24  19  81 S8        30.21S WCI  15          
$$
 
IAZ064-065-067-068-078-140200-
   EAST CENTRAL IOWA
  
CITY           SKY/WX    TMP DP  RH WIND       PRES   REMARKS
DAVENPORT      FAIR      29  20  69 S8        30.29S WCI  21          
IOWA CITY      FAIR      26  18  71 SE6       30.27F WCI  19          
MT. PLEASANT * CLOUDY    30  23  74 SE6       30.28S WCI  24          
MUSCATINE *    FAIR      27  19  74 CALM      30.29F                  
QUAD CITIES    FAIR      28  20  71 CALM      30.27F                  
$$
 
IAZ062-063-075>077-085>089-095>099-140200-
   SOUTHEAST IOWA
  
CITY           SKY/WX    TMP DP  RH WIND       PRES   REMARKS
BURLINGTON     CLEAR     32  24  72 S6        30.28S WCI  26          
FAIRFIELD *    CLOUDY    32  23  69 SE10      30.25F WCI  24          
FORT MADISON * CLEAR     34  27  75 SE3       30.29F                  
KEOKUK *       PTCLDY    36  27  69 SE7       30.28S WCI  30          
OSKALOOSA *    FAIR      27  21  78 SE12      30.24S WCI  17          
OTTUMWA        CLOUDY    32  23  69 SE5       30.24F WCI  27          
WASHINGTON *   CLOUDY    28  25  86 S8        30.27F WCI  20          
$$

ABBREVIATIONS USED IN REMARKS
   TC - TEMPERATURES IN CELSIUS
  WCI - WIND CHILL INDEX
   HX - HEAT INDEX
  VSB - VISIBILITY  
$$